RH
59 54 49 51 52 53 52 46 44 46 47 48 48 46 44 44 45 44 42 42 43 38 33 33 31 30 36 41 42 43 43 40 38 39 40 39 40 41 40 40 41 43
57 53 50 50 50 52 50 46 46 48 50 50 49 45 43 41 40 40 38 38 39 35 30 30 27 27 34 40 43 44 43 42 41 42 43 44 43 42 40 39 38 38
56 54 52 51 51 53 51 49 51 54 54 52 49 46 44 40 39 40 37 37 40 35 30 30 27 26 32 37 41 44 43 43 44 45 46 46 45 43 40 37 34 34
59 57 56 56 57 58 57 55 58 60 58 56 52 47 44 42 41 40 39 39 40 36 33 31 27 26 30 33 37 41 44 46 47 47 48 46 43 41 39 37 35 35
62 61 60 60 62 63 61 60 62 63 62 61 57 51 47 46 43 40 39 40 38 36 36 33 27 27 29 30 32 36 41 46 48 48 48 45 41 39 38 37 36 37
63 64 63 62 64 65 62 61 63 63 64 63 59 53 48 46 43 41 40 39 37 36 37 34 29 27 27 27 29 31 36 42 45 45 46 45 42 38 34 32 31 31
64 65 65 64 66 65 62 61 61 60 61 61 57 49 45 43 42 42 42 38 37 38 37 34 30 28 27 27 28 28 30 34 38 40 41 40 37 32 28 26 24 24
66 67 67 69 69 66 65 62 59 58 59 58 53 46 43 42 42 43 40 34 35 39 37 34 31 29 28 28 27 25 22 24 28 32 32 31 29 26 24 23 23 24
66 67 68 71 72 69 66 61 56 56 57 54 51 47 44 43 43 45 38 30 33 39 38 35 33 29 28 29 28 25 21 20 22 24 25 25 25 25 25 24 25 27
64 63 65 70 72 68 63 58 54 54 54 53 51 49 46 46 48 48 38 29 32 37 38 36 33 30 30 30 29 26 23 23 24 26 28 30 31 32 31 30 31 32
71 68 69 70 68 64 60 58 55 52 52 52 50 49 48 49 52 49 38 32 34 35 35 34 32 31 31 30 29 27 26 28 31 33 34 36 37 37 37 37 37 37
82 80 81 76 68 60 58 59 55 52 51 49 47 48 48 49 50 44 36 35 37 35 33 34 33 32 33 34 34 34 34 35 37 38 38 38 39 38 37 38 39 40
87 87 86 81 70 60 58 57 53 50 50 45 44 47 49 49 47 41 35 35 38 36 35 35 35 35 37 39 39 39 40 41 42 42 41 41 41 40 38 37 39 41
86 88 86 82 74 67 66 64 56 52 50 46 47 50 50 50 47 41 36 35 36 37 36 36 35 34 37 39 40 41 43 45 45 46 45 45 45 44 43 42 43 44
83 84 83 80 75 73 74 72 65 58 54 50 49 49 49 48 45 40 35 34 35 35 37 38 37 36 36 37 38 40 43 46 48 48 48 48 48 47 47 48 48 48
80 81 80 77 76 76 75 74 68 60 55 53 50 48 47 46 45 41 37 37 37 37 37 38 39 39 38 37 37 38 40 43 44 45 46 46 46 46 47 48 49 51
78 78 77 75 75 76 74 72 67 60 55 52 52 51 49 48 49 47 44 43 43 43 42 41 39 39 38 37 37 37 37 38 38 40 41 41 42 43 45 45 46 48
74 71 71 72 72 73 72 70 69 65 60 55 54 55 53 52 52 51 49 48 48 47 47 46 44 42 40 38 37 37 37 36 36 36 37 37 38 40 41 41 42 45
70 66 69 74 77 76 74 70 69 71 69 65 65 65 60 55 52 50 49 49 49 50 50 49 48 47 45 44 43 41 41 39 38 38 38 40 41 42 43 43 42 44
68 64 67 76 81 81 78 74 74 76 74 71 74 76 70 62 57 53 52 53 54 54 52 51 51 50 49 48 47 46 45 44 43 43 43 44 46 47 46 46 47 48
66 64 68 76 81 80 79 78 79 80 76 71 72 72 68 64 61 58 58 61 63 61 57 55 53 52 50 48 46 45 43 42 41 40 40 40 42 45 48 52 54 56
65 64 66 70 74 73 73 71 71 71 70 67 65 63 61 59 59 58 58 61 64 65 65 62 58 55 51 48 46 44 41 39 37 37 37 37 37 40 45 51 55 57
66 64 64 64 66 66 66 64 63 61 60 59 58 58 58 57 57 57 56 56 57 58 59 58 57 56 54 51 49 47 48 51 50 46 43 39 38 39 42 45 49 52
69 68 66 63 62 63 62 62 62 61 60 59 58 58 59 59 60 61 60 60 60 60 58 57 56 56 55 54 52 51 54 61 61 55 50 46 46 48 48 49 51 54
72 73 70 68 66 65 63 63 63 63 62 61 60 62 64 64 65 66 66 67 66 66 65 63 62 62 61 60 59 58 58 60 58 56 54 52 53 53 52 53 56 60
69 72 71 69 68 66 64 63 63 62 62 61 62 66 68 69 69 68 69 70 69 68 68 67 65 66 65 65 65 65 65 63 60 56 53 51 52 52 54 55 57 60